SCP
0 0 0 0 0 0 0 -0 0 0 0 -0 -0 0 0 -0 0 0 0 0 0 0 0 0 -0 0 0 0 0 0 0 0 0 0 0 0 0 0 0 0 0 0 0 0
0 0 0 0 0 0 0 0 -0 -0 -0 0 0 0 -0 -0 0 0 0 0 -0 -0 -0 -0 -0 -0 0 0 0 -0 0 0 0 0 0 0 0 0 0 0 0 0 0 0
0 0 0 0 0 0 0 0 0 0 -0 -0 -0 0 -0 -0 0 0 0 -0 0 -0 -0 -0 -0 -0 -0 0 -0 -0 0 0 0 -0 0 0 0 0 0 0 0 0 0 0
0 0 0 0 0 0 0 0 0 0 -0 -0 -0 -0 0 0 0 0 0 0 0 0 -0 -0 -0 -0 -0 -0 0 0 -0 -0 0 -0 -0 0 -0 -0 0 -0 -0 0 0 0
0 0 0 0 0 0 0 0 0 0 -0 0 0 -0 0 -0 -0 0 0 0 0 0 0 0 -0 -0 -0 0 0 0 0 0 0 0 -0 0 0 0 0 0 0 0 0 -0
0 0 0 0 0 0 0 0 0 0 0 0 -0 0 0 0 0 0 0 0 0 0 0 0 0 0 0 -0 0 0 0 -0 -0 -0 -0 0 0 0 0 0 0 -0 0 -0
0 0 0 0 0 0 0 0 0 0 0 0 0 0 0 0 0 0 0 0 0 -0 -0 0 0 0 0 0 0 0 0 0 -0 -0 -0 -0 0 0 0 0 0 0 0 -0
0 0 0 0 0 0 0 0 0 0 0 0 0 0 0 -0 -0 -0 0 -0 -0 -0 -0 0 0 0 0 0 0 0 0 0 0 0 0 0 0 0 0 0 0 0 -0 -0
0 0 0 0 0 0 0 0 0 0 0 0 0 0 0 0 0 -0 -0 -0 0 0 0 0 0 0 0 0 0 0 0 0 0 0 0 0 -0 0 0 0 0 0 -0 -0
0 0 0 0 -0 0 0 -0 0 0 0 -0 0 -0 0 0 0 0 0 0 0 0 0 0 0 0 0 0 0 0 0 0 0 0 -0 -0 -0 -0 -0 -0 -0 0 0 -0
0 0 0 0 0 0 0 0 0 0 0 -0 -0 -0 -0 -0 -0 -0 -0 -0 -0 -0 -0 -0 -0 -0 0 0 -0 -0 -0 -0 -0 -0 -0 -0 -0 -0 -0 0 -0 0 -0 0
0 0 0 0 0 0 0 0 -0 -0 0 0 -0 -0 -0 -0 -0 -0 -0 -0 -0 -0 -0 -0 -0 -0 -0 -0 -0 -0 -0 -0 -0 -0 -0 -0 -0 0 0 0 0 0 0 0
0 0 0 0 0 0 0 0 0 0 0 0 0 -0 -0 -0 -0 -0 -0 -0 -0 -0 -0 -0 -0 -0 -0 -0 -0 0 0 0 0 -0 -0 -0 -0 0 0 0 0 0 0 0
0 0 0 0 0 0 0 0 0 0 0 0 0 0 0 0 0 0 -0 -0 -0 -0 0 -0 -0 -0 -0 -0 -0 0 0 0 -0 -0 -0 0 0 0 0 0 0 0 0 0
0 0 0 0 0 0 0 0 0 0 0 0 0 0 0 0 0 0 0 0 0 0 0 0 0 0 0 0 0 0 0 0 0 0 0 0 0 0 0 0 0 0 0 0
0 0 0 0 0 0 0 0 0 0 0 0 0 0 0 0 0 0 0 0 0 0 0 0 0 0 0 0 0 0 0 0 0 0 0 0 0 0 0 0 0 0 0 0
0 0 0 0 0 0 0 0 0 0 0 0 0 0 0 0 0 0 0 0 0 0 0 0 0 0 0 0 0 0 0 0 0 0 0 0 0 0 0 0 0 0 0 0
0 0 0 0 0 0 0 0 0 0 0 0 0 0 0 0 0 0 0 0 0 0 0 0 0 0 0 0 0 0 0 0 0 0 0 0 0 0 0 0 0 0 0 0
0 0 0 0 0 0 0 0 0 0 0 0 0 0 0 0 0 0 0 0 0 0 0 0 0 0 0 0 0 0 0 0 0 0 0 0 0 0 0 0 0 0 0 0
0 0 0 0 0 0 0 0 0 0 0 0 0 0 0 0 0 0 0 0 0 0 0 0 0 0 0 0 0 0 0 0 0 0 0 0 0 0 0 0 0 0 0 0
0 0 0 0 0 0 0 0 0 0 0 0 0 0 0 0 0 0 0 0 0 0 0 0 0 0 0 0 0 0 0 0 0 0 0 0 0 0 0 0 0 0 0 0
0 0 0 0 0 0 0 0 0 0 0 0 0 0 0 0 0 0 0 0 0 0 0 0 0 0 0 0 0 0 0 0 0 0 0 0 0 0 0 0 0 0 0 0
0 0 0 0 0 0 0 0 0 0 0 0 0 0 0 0 0 0 0 0 0 0 0 0 0 0 0 0 0 0 0 0 0 0 0 0 0 0 0 0 0 0 0 0
0 0 0 0 0 0 0 0 0 0 0 0 0 0 0 0 0 0 0 0 0 0 0 0 0 0 0 0 0 0 0 0 0 0 0 0 0 0 0 0 0 0 0 0
0 0 0 0 0 0 0 0 0 0 0 0 0 0 0 0 0 0 0 0 0 0 0 0 0 0 0 0 0 0 0 0 0 0 0 0 0 0 0 0 0 0 0 0
0 0 0 0 0 0 0 0 0 0 0 0 0 0 0 0 0 0 0 0 0 0 0 0 0 0 0 0 0 0 0 0 0 0 0 0 0 0 0 0 0 0 0 0
0 0 0 0 0 0 0 0 0 0 0 0 0 0 0 0 0 0 0 0 0 0 0 0 0 0 0 0 0 0 0 0 0 0 0 0 0 0 0 0 0 0 0 0
Wind_Speed_500mb
13 18 11 19 20 16 25 22 12 1 10 21 18 20 26 17 13 16 17 19 24 27 31 31 29 33 33 32 30 30 28 24 22 17 12 17 20 29 29 26 24 22 22 22
8 2 4 14 24 25 26 32 32 29 40 26 19 20 24 24 17 16 14 16 19 22 25 29 31 29 32 30 30 29 30 33 34 27 14 16 23 30 26 24 26 27 25 18
7 4 11 12 14 29 17 15 27 17 18 5 5 13 22 25 23 20 13 11 13 15 18 23 27 27 29 29 29 29 33 34 32 31 24 22 16 17 21 25 18 17 27 24
7 10 4 1 4 12 27 17 32 15 21 18 10 10 20 27 26 21 16 11 9 10 14 17 21 22 21 25 26 25 27 29 33 34 43 38 30 30 32 25 32 36 35 36
4 4 16 3 9 13 14 13 38 42 39 23 15 10 28 37 35 26 17 14 9 6 4 8 13 16 18 18 21 20 28 30 35 28 35 39 42 38 33 34 36 37 38 37
5 3 8 1 7 10 6 9 11 45 39 32 20 10 10 14 33 37 29 21 14 10 3 3 10 11 12 14 18 24 31 31 35 28 35 35 39 37 32 33 34 34 34 35
9 8 18 14 16 17 2 3 5 23 29 38 20 24 6 17 21 25 25 23 19 14 9 1 5 7 7 11 15 23 27 26 29 29 30 30 29 30 29 29 29 31 33 36
8 7 15 28 18 13 4 7 6 13 33 46 46 26 24 20 25 27 26 26 23 18 13 6 1 5 5 6 11 16 19 22 22 21 20 23 22 24 24 25 26 29 31 33
19 14 3 63 16 44 11 13 12 11 20 39 45 47 36 30 30 28 26 24 24 22 18 12 7 1 2 4 6 10 14 16 18 19 20 21 19 18 18 19 21 25 27 29
3 11 43 55 62 45 37 45 28 19 18 29 46 48 48 40 35 34 32 28 26 27 24 19 14 10 5 5 6 8 10 11 12 14 15 15 14 15 14 17 17 19 19 21
15 28 38 56 55 64 64 65 61 47 42 33 34 49 48 48 45 39 36 34 33 30 28 27 24 20 15 10 10 10 9 9 9 10 11 10 10 11 12 12 14 14 16 18
19 35 20 24 19 27 43 47 47 64 67 61 48 46 52 52 45 43 41 42 42 37 36 36 34 31 27 21 16 16 16 14 11 11 11 12 12 11 11 10 10 10 10 14
68 61 61 72 46 46 43 48 41 34 37 52 67 60 52 60 54 47 46 48 50 44 36 39 41 40 37 33 28 23 21 20 18 16 15 14 12 12 11 11 10 9 8 9
94 89 76 86 53 43 35 45 48 46 48 52 48 59 68 60 61 62 61 52 47 47 45 46 48 46 45 44 39 34 29 26 24 21 19 19 18 17 17 16 15 12 6 4
90 88 90 79 68 61 48 52 60 55 42 41 46 49 65 74 70 72 65 57 52 53 55 55 56 54 53 53 50 44 39 33 30 28 26 26 25 25 24 23 20 15 11 6
74 71 77 83 91 96 90 80 76 78 70 61 58 56 56 65 75 72 68 68 70 74 69 67 64 55 58 58 57 55 50 44 39 36 34 33 32 31 30 28 25 22 18 15
77 66 60 69 74 84 79 72 78 86 86 86 83 70 67 65 70 80 79 77 80 77 69 66 65 60 61 64 64 60 57 53 48 46 44 41 39 38 37 35 32 29 26 22
85 84 91 90 85 83 80 70 62 59 57 50 49 57 68 72 77 74 78 84 86 85 81 74 71 68 67 66 66 66 64 62 60 55 51 50 47 44 44 42 41 38 34 31
70 71 71 73 73 81 86 86 84 86 82 74 69 66 58 57 62 72 70 78 89 95 92 83 80 75 75 73 72 72 73 70 69 66 61 57 56 55 53 50 47 44 43 39
39 46 51 51 49 53 61 63 62 69 74 74 73 77 82 81 65 57 73 84 84 87 84 85 83 83 79 75 72 73 75 75 74 71 69 66 63 61 58 55 53 52 50 46
32 35 36 37 38 38 38 47 49 50 52 59 64 69 73 71 67 59 59 82 84 81 74 82 86 84 80 77 75 74 75 77 76 76 74 70 65 64 63 61 58 56 54 51
29 31 33 34 33 27 31 36 39 38 36 41 50 54 60 67 71 73 66 62 65 77 72 73 83 85 82 76 76 75 75 74 74 76 74 70 69 68 66 64 61 57 55 54
29 24 21 17 18 19 20 22 26 28 28 29 34 38 44 47 55 64 69 54 55 65 68 62 70 81 81 76 74 72 72 72 72 71 70 71 70 68 66 64 60 57 56 56
14 11 10 10 11 11 9 12 16 21 24 27 30 34 38 41 45 51 59 59 51 47 55 57 60 70 75 77 73 70 68 69 69 69 70 69 69 68 67 65 63 59 56 55
14 15 15 16 19 20 22 21 21 22 24 24 24 27 29 32 37 38 42 45 49 56 52 49 52 64 66 67 69 67 65 64 64 66 67 67 68 69 67 64 62 59 56 55
11 11 10 11 13 16 19 20 20 21 22 22 21 18 17 18 20 23 27 30 33 38 41 43 46 55 61 59 58 58 60 61 62 63 64 66 66 66 64 63 62 59 55 53
8 4 3 4 7 10 12 14 14 15 17 17 16 14 12 14 17 20 23 25 26 28 31 34 38 42 48 51 52 53 53 55 57 57 58 59 59 59 58 58 57 57 57 55
Wind_Direction_500mb
267 267 256 254 249 222 229 234 229 68 239 268 264 261 280 261 268 304 323 338 350 358 9 15 21 26 29 36 44 50 55 55 60 67 100 153 171 165 163 163 190 201 216 221
275 285 213 268 247 235 242 246 257 265 280 276 290 243 230 218 238 270 299 328 341 353 6 20 25 24 31 39 47 49 61 63 61 59 76 104 131 152 146 143 149 159 160 161
268 329 306 275 232 200 217 220 215 206 229 261 282 242 229 220 242 263 276 296 319 346 6 23 27 37 32 37 49 58 62 60 75 78 84 86 94 116 124 120 111 113 120 120
290 306 291 42 184 182 222 247 217 234 240 217 234 261 252 229 240 254 259 268 299 344 6 22 30 35 39 43 51 58 68 69 73 81 87 81 99 88 101 114 119 108 103 104
295 270 300 202 192 189 185 281 213 223 236 224 220 272 261 237 237 246 254 256 269 294 343 23 36 34 43 56 67 68 77 76 75 71 85 101 100 106 100 100 102 102 99 103
145 242 247 190 153 189 156 278 205 211 229 209 164 230 246 226 232 236 232 231 233 236 259 30 52 32 44 65 78 80 76 75 80 81 86 89 91 94 98 98 96 97 99 96
178 257 280 228 151 143 155 291 191 202 205 182 196 213 206 197 198 196 208 214 220 218 219 206 66 52 41 78 84 87 85 83 81 79 81 84 92 97 96 97 98 100 100 96
140 214 275 161 126 195 240 184 209 215 211 209 213 214 214 208 201 202 205 210 214 217 216 215 130 65 67 96 105 97 92 85 82 85 87 90 90 92 94 95 93 92 93 94
202 207 245 187 205 210 221 235 217 236 237 224 223 219 217 217 214 214 213 214 217 219 219 220 222 219 125 130 119 102 89 79 75 73 72 73 76 83 93 100 106 105 101 97
273 224 231 233 232 239 237 245 248 255 258 235 230 226 224 224 226 225 222 220 219 222 222 220 229 236 232 194 167 143 130 118 107 103 97 97 103 107 110 110 108 107 108 107
257 280 269 264 240 239 245 250 251 248 246 249 243 236 231 230 232 234 231 226 226 227 225 221 222 232 238 232 213 193 180 166 151 135 126 119 119 118 122 125 123 124 123 113
236 212 220 257 252 234 239 252 263 253 247 244 243 243 235 233 231 233 231 228 228 228 225 224 226 226 229 232 230 220 211 205 194 184 176 168 165 157 147 140 137 138 139 143
243 260 255 267 260 262 260 266 257 254 253 251 243 243 242 236 233 231 230 229 229 229 229 227 229 229 230 231 232 232 227 223 219 212 205 195 191 188 181 172 173 173 182 97
249 252 256 257 262 269 271 268 257 256 255 251 254 245 240 241 235 232 232 234 234 232 230 230 232 231 231 233 234 235 234 231 228 225 222 218 212 211 209 204 199 199 194 92
252 253 257 260 262 263 266 254 254 256 252 250 251 254 235 235 238 237 237 235 233 231 230 231 234 233 233 234 235 237 238 238 236 233 229 227 225 222 222 221 216 209 204 201
260 259 259 260 264 263 262 259 256 259 260 258 255 254 257 251 243 242 239 236 233 231 228 228 233 234 236 237 237 237 237 236 237 236 234 232 231 231 231 231 231 224 217 218
249 247 251 254 258 266 265 268 267 265 264 260 260 261 259 256 251 243 238 235 237 238 238 239 240 237 238 237 237 239 238 238 237 236 235 234 233 231 231 233 235 237 235 230
262 263 266 266 267 268 271 271 270 269 267 270 266 259 254 251 250 249 244 238 237 237 236 235 235 233 236 238 238 238 238 238 239 239 238 236 236 235 234 233 233 235 236 237
266 269 270 268 266 267 269 268 265 266 266 263 262 262 261 260 257 250 246 246 242 239 239 235 235 233 234 237 237 236 237 237 237 236 236 236 235 234 235 235 235 235 237 239
264 264 266 269 271 272 273 269 267 265 262 260 257 253 252 252 256 257 245 242 245 249 246 242 240 238 238 238 240 241 240 240 239 238 238 237 237 237 238 237 237 237 239 240
264 268 271 276 278 276 280 279 269 266 267 258 252 250 250 248 248 252 252 244 238 245 245 242 238 240 239 240 240 243 243 241 240 239 238 239 239 240 240 239 240 241 242 244
252 262 271 273 269 273 275 275 281 282 273 262 257 255 250 246 245 250 253 255 250 247 247 243 237 234 236 237 240 243 244 242 241 241 241 240 240 240 241 242 243 244 246 247
243 247 256 274 291 291 280 280 279 278 276 270 264 262 257 255 250 250 251 252 251 249 249 245 238 235 235 235 237 240 243 242 242 243 243 242 242 243 243 243 244 246 248 250
255 285 293 286 286 290 303 301 289 282 277 272 270 265 263 262 259 253 252 249 248 249 248 244 238 233 233 234 236 238 241 241 243 244 244 243 242 242 243 242 242 244 249 252
235 251 261 274 286 296 298 301 302 296 289 282 274 268 265 266 267 264 259 254 250 249 249 244 236 230 230 230 233 238 241 242 243 244 244 242 241 241 241 242 242 244 247 251
248 262 276 283 289 298 305 304 301 301 301 297 291 286 280 268 259 254 250 247 245 242 238 230 229 226 225 227 229 234 238 242 244 242 240 238 237 237 238 239 240 242 247 252
227 239 265 310 327 328 328 325 322 319 313 307 304 302 292 281 272 266 258 246 230 222 219 217 217 218 222 227 231 234 237 239 239 238 237 235 233 233 236 238 239 242 246 250
Wind_Speed_850mb
13 18 11 19 20 16 25 22 12 1 10 21 18 20 26 17 13 16 17 19 24 27 31 31 29 33 33 32 30 30 28 24 22 17 12 17 20 29 29 26 24 22 22 22
8 2 4 14 24 25 26 32 32 29 40 26 19 20 24 24 17 16 14 16 19 22 25 29 31 29 32 30 30 29 30 33 34 27 14 16 23 30 26 24 26 27 25 18
7 4 11 12 14 29 17 15 27 17 18 5 5 13 22 25 23 20 13 11 13 15 18 23 27 27 29 29 29 29 33 34 32 31 24 22 16 17 21 25 18 17 27 24
7 10 4 1 4 12 27 17 32 15 21 18 10 10 20 27 26 21 16 11 9 10 14 17 21 22 21 25 26 25 27 29 33 34 43 38 30 30 32 25 32 36 35 36
4 4 16 3 9 13 14 13 38 42 39 23 15 10 28 37 35 26 17 14 9 6 4 8 13 16 18 18 21 20 28 30 35 28 35 39 42 38 33 34 36 37 38 37
5 3 8 1 7 10 6 9 11 45 39 32 20 10 10 14 33 37 29 21 14 10 3 3 10 11 12 14 18 24 31 31 35 28 35 35 39 37 32 33 34 34 34 35
9 8 18 14 16 17 2 3 5 23 29 38 20 24 6 17 21 25 25 23 19 14 9 1 5 7 7 11 15 23 27 26 29 29 30 30 29 30 29 29 29 31 33 36
8 7 15 28 18 13 4 7 6 13 33 46 46 26 24 20 25 27 26 26 23 18 13 6 1 5 5 6 11 16 19 22 22 21 20 23 22 24 24 25 26 29 31 33
19 14 3 63 16 44 11 13 12 11 20 39 45 47 36 30 30 28 26 24 24 22 18 12 7 1 2 4 6 10 14 16 18 19 20 21 19 18 18 19 21 25 27 29
3 11 43 55 62 45 37 45 28 19 18 29 46 48 48 40 35 34 32 28 26 27 24 19 14 10 5 5 6 8 10 11 12 14 15 15 14 15 14 17 17 19 19 21
15 28 38 56 55 64 64 65 61 47 42 33 34 49 48 48 45 39 36 34 33 30 28 27 24 20 15 10 10 10 9 9 9 10 11 10 10 11 12 12 14 14 16 18
19 35 20 24 19 27 43 47 47 64 67 61 48 46 52 52 45 43 41 42 42 37 36 36 34 31 27 21 16 16 16 14 11 11 11 12 12 11 11 10 10 10 10 14
68 61 61 72 46 46 43 48 41 34 37 52 67 60 52 60 54 47 46 48 50 44 36 39 41 40 37 33 28 23 21 20 18 16 15 14 12 12 11 11 10 9 8 9
94 89 76 86 53 43 35 45 48 46 48 52 48 59 68 60 61 62 61 52 47 47 45 46 48 46 45 44 39 34 29 26 24 21 19 19 18 17 17 16 15 12 6 4
90 88 90 79 68 61 48 52 60 55 42 41 46 49 65 74 70 72 65 57 52 53 55 55 56 54 53 53 50 44 39 33 30 28 26 26 25 25 24 23 20 15 11 6
74 71 77 83 91 96 90 80 76 78 70 61 58 56 56 65 75 72 68 68 70 74 69 67 64 55 58 58 57 55 50 44 39 36 34 33 32 31 30 28 25 22 18 15
77 66 60 69 74 84 79 72 78 86 86 86 83 70 67 65 70 80 79 77 80 77 69 66 65 60 61 64 64 60 57 53 48 46 44 41 39 38 37 35 32 29 26 22
85 84 91 90 85 83 80 70 62 59 57 50 49 57 68 72 77 74 78 84 86 85 81 74 71 68 67 66 66 66 64 62 60 55 51 50 47 44 44 42 41 38 34 31
70 71 71 73 73 81 86 86 84 86 82 74 69 66 58 57 62 72 70 78 89 95 92 83 80 75 75 73 72 72 73 70 69 66 61 57 56 55 53 50 47 44 43 39
39 46 51 51 49 53 61 63 62 69 74 74 73 77 82 81 65 57 73 84 84 87 84 85 83 83 79 75 72 73 75 75 74 71 69 66 63 61 58 55 53 52 50 46
32 35 36 37 38 38 38 47 49 50 52 59 64 69 73 71 67 59 59 82 84 81 74 82 86 84 80 77 75 74 75 77 76 76 74 70 65 64 63 61 58 56 54 51
29 31 33 34 33 27 31 36 39 38 36 41 50 54 60 67 71 73 66 62 65 77 72 73 83 85 82 76 76 75 75 74 74 76 74 70 69 68 66 64 61 57 55 54
29 24 21 17 18 19 20 22 26 28 28 29 34 38 44 47 55 64 69 54 55 65 68 62 70 81 81 76 74 72 72 72 72 71 70 71 70 68 66 64 60 57 56 56
14 11 10 10 11 11 9 12 16 21 24 27 30 34 38 41 45 51 59 59 51 47 55 57 60 70 75 77 73 70 68 69 69 69 70 69 69 68 67 65 63 59 56 55
14 15 15 16 19 20 22 21 21 22 24 24 24 27 29 32 37 38 42 45 49 56 52 49 52 64 66 67 69 67 65 64 64 66 67 67 68 69 67 64 62 59 56 55
11 11 10 11 13 16 19 20 20 21 22 22 21 18 17 18 20 23 27 30 33 38 41 43 46 55 61 59 58 58 60 61 62 63 64 66 66 66 64 63 62 59 55 53
8 4 3 4 7 10 12 14 14 15 17 17 16 14 12 14 17 20 23 25 26 28 31 34 38 42 48 51 52 53 53 55 57 57 58 59 59 59 58 58 57 57 57 55
Wind_Direction_850mb
267 267 256 254 249 222 229 234 229 68 239 268 264 261 280 261 268 304 323 338 350 358 9 15 21 26 29 36 44 50 55 55 60 67 100 153 171 165 163 163 190 201 216 221
275 285 213 268 247 235 242 246 257 265 280 276 290 243 230 218 238 270 299 328 341 353 6 20 25 24 31 39 47 49 61 63 61 59 76 104 131 152 146 143 149 159 160 161
268 329 306 275 232 200 217 220 215 206 229 261 282 242 229 220 242 263 276 296 319 346 6 23 27 37 32 37 49 58 62 60 75 78 84 86 94 116 124 120 111 113 120 120
290 306 291 42 184 182 222 247 217 234 240 217 234 261 252 229 240 254 259 268 299 344 6 22 30 35 39 43 51 58 68 69 73 81 87 81 99 88 101 114 119 108 103 104
295 270 300 202 192 189 185 281 213 223 236 224 220 272 261 237 237 246 254 256 269 294 343 23 36 34 43 56 67 68 77 76 75 71 85 101 100 106 100 100 102 102 99 103
145 242 247 190 153 189 156 278 205 211 229 209 164 230 246 226 232 236 232 231 233 236 259 30 52 32 44 65 78 80 76 75 80 81 86 89 91 94 98 98 96 97 99 96
178 257 280 228 151 143 155 291 191 202 205 182 196 213 206 197 198 196 208 214 220 218 219 206 66 52 41 78 84 87 85 83 81 79 81 84 92 97 96 97 98 100 100 96
140 214 275 161 126 195 240 184 209 215 211 209 213 214 214 208 201 202 205 210 214 217 216 215 130 65 67 96 105 97 92 85 82 85 87 90 90 92 94 95 93 92 93 94
202 207 245 187 205 210 221 235 217 236 237 224 223 219 217 217 214 214 213 214 217 219 219 220 222 219 125 130 119 102 89 79 75 73 72 73 76 83 93 100 106 105 101 97
273 224 231 233 232 239 237 245 248 255 258 235 230 226 224 224 226 225 222 220 219 222 222 220 229 236 232 194 167 143 130 118 107 103 97 97 103 107 110 110 108 107 108 107
257 280 269 264 240 239 245 250 251 248 246 249 243 236 231 230 232 234 231 226 226 227 225 221 222 232 238 232 213 193 180 166 151 135 126 119 119 118 122 125 123 124 123 113
236 212 220 257 252 234 239 252 263 253 247 244 243 243 235 233 231 233 231 228 228 228 225 224 226 226 229 232 230 220 211 205 194 184 176 168 165 157 147 140 137 138 139 143
243 260 255 267 260 262 260 266 257 254 253 251 243 243 242 236 233 231 230 229 229 229 229 227 229 229 230 231 232 232 227 223 219 212 205 195 191 188 181 172 173 173 182 97
249 252 256 257 262 269 271 268 257 256 255 251 254 245 240 241 235 232 232 234 234 232 230 230 232 231 231 233 234 235 234 231 228 225 222 218 212 211 209 204 199 199 194 92
252 253 257 260 262 263 266 254 254 256 252 250 251 254 235 235 238 237 237 235 233 231 230 231 234 233 233 234 235 237 238 238 236 233 229 227 225 222 222 221 216 209 204 201
260 259 259 260 264 263 262 259 256 259 260 258 255 254 257 251 243 242 239 236 233 231 228 228 233 234 236 237 237 237 237 236 237 236 234 232 231 231 231 231 231 224 217 218
249 247 251 254 258 266 265 268 267 265 264 260 260 261 259 256 251 243 238 235 237 238 238 239 240 237 238 237 237 239 238 238 237 236 235 234 233 231 231 233 235 237 235 230
262 263 266 266 267 268 271 271 270 269 267 270 266 259 254 251 250 249 244 238 237 237 236 235 235 233 236 238 238 238 238 238 239 239 238 236 236 235 234 233 233 235 236 237
266 269 270 268 266 267 269 268 265 266 266 263 262 262 261 260 257 250 246 246 242 239 239 235 235 233 234 237 237 236 237 237 237 236 236 236 235 234 235 235 235 235 237 239
264 264 266 269 271 272 273 269 267 265 262 260 257 253 252 252 256 257 245 242 245 249 246 242 240 238 238 238 240 241 240 240 239 238 238 237 237 237 238 237 237 237 239 240
264 268 271 276 278 276 280 279 269 266 267 258 252 250 250 248 248 252 252 244 238 245 245 242 238 240 239 240 240 243 243 241 240 239 238 239 239 240 240 239 240 241 242 244
252 262 271 273 269 273 275 275 281 282 273 262 257 255 250 246 245 250 253 255 250 247 247 243 237 234 236 237 240 243 244 242 241 241 241 240 240 240 241 242 243 244 246 247
243 247 256 274 291 291 280 280 279 278 276 270 264 262 257 255 250 250 251 252 251 249 249 245 238 235 235 235 237 240 243 242 242 243 243 242 242 243 243 243 244 246 248 250
255 285 293 286 286 290 303 301 289 282 277 272 270 265 263 262 259 253 252 249 248 249 248 244 238 233 233 234 236 238 241 241 243 244 244 243 242 242 243 242 242 244 249 252
235 251 261 274 286 296 298 301 302 296 289 282 274 268 265 266 267 264 259 254 250 249 249 244 236 230 230 230 233 238 241 242 243 244 244 242 241 241 241 242 242 244 247 251
248 262 276 283 289 298 305 304 301 301 301 297 291 286 280 268 259 254 250 247 245 242 238 230 229 226 225 227 229 234 238 242 244 242 240 238 237 237 238 239 240 242 247 252
227 239 265 310 327 328 328 325 322 319 313 307 304 302 292 281 272 266 258 246 230 222 219 217 217 218 222 227 231 234 237 239 239 238 237 235 233 233 236 238 239 242 246 250